User: anonymous   Login
Location: Unspecified
(0.0000°N, 0.0000°E)
Time: 07:47:19
(UTC+00:00)
Language:

STARLING 2 - Orbit

View from above orbital plane
View from above orbital plane
View from above satellite
View from above satellite

Ground track
Ground track

The orbit is defined by the following mean orbital elements,

1 57387U          26145.60343873 +.00000000 +00000-0 +97922-4 0 00008
2 57387  99.5097 158.0947 0005235 183.5146 176.6039 15.06577674    08
Epoch (UTC): 25 May 2026 14:28:57
Eccentricity: 0.0005235
inclination: 99.5097°
perigee height: 543 km
apogee height: 550 km
right ascension of ascending node: 158.0947°
argument of perigee: 183.5146°
revolutions per day: 15.06577674
mean anomaly at epoch: 176.6039°

The dashed part of the orbit path shows where the satellite is in the earth's shadow,  

DLR